Regional Weather Roundup
Issued by NWS

Home | Current Version | Previous Version | Graphics & Text | Print | Product List | Glossary On
Versions: 1 2 3 4 5 6 7 8 9 10 11 12 13 14 15 16 17 18 19 20 21 22 23 24 25 26 27 28 29 30 31 32 33 34 35 36 37 38 39 40 41 42 43 44 45 46 47 48 49 50
000
ASUS43 KOAX 191802
RWRNE

WEATHER ROUNDUP FOR NEBRASKA
NATIONAL WEATHER SERVICE OMAHA NE
100 PM CDT THU OCT 19 2017

NOTES: SATELLITE DATA IS BEING USED TO AUGMENT CLOUD COVER ABOVE
       12000 FEET.
       "FAIR" INDICATES FEW OR NO CLOUDS BELOW 12,000 FEET WITH NO
       SIGNIFICANT WEATHER AND/OR OBSTRUCTIONS TO VISIBILITY.


NEZ001>004-019>022-054>056-191900-
NEBRASKA PANHANDLE

CITY           SKY/WX    TMP DP  RH WIND       PRES   REMARKS
SCOTTSBLUFF    SUNNY     69  27  20 VRB3      29.98F
6HR MIN TEMP:  34; 6HR MAX TEMP:  69;

ALLIANCE       SUNNY     76  25  15 S12       29.97F
6HR MIN TEMP:  32; 6HR MAX TEMP:  76;

CHADRON        SUNNY     79  18  10 W6        29.89F
6HR MIN TEMP:  42; 6HR MAX TEMP:  79;

GORDON         FAIR      74  31  20 SW9       29.94F
6HR MIN TEMP:  47; 6HR MAX TEMP:  74;

KIMBALL        SUNNY     74  25  16 S12       30.03F
SIDNEY         SUNNY     75  31  19 S16       30.02F
6HR MIN TEMP:  37; 6HR MAX TEMP:  76;

$$

NEZ057>060-069>072-079>082-191900-
SOUTHWEST NEBRASKA

CITY           SKY/WX    TMP DP  RH WIND       PRES   REMARKS
NORTH PLATTE   SUNNY     71  45  39 S10       30.01F
6HR MIN TEMP:  32; 6HR MAX TEMP:  71;

IMPERIAL       SUNNY     78  41  26 S14G24    30.00F
6HR MIN TEMP:  35; 6HR MAX TEMP:  79;

LEXINGTON      SUNNY     74  44  34 S9G16     30.02F
MCCOOK         SUNNY     73  45  36 SE9       30.02F
6HR MIN TEMP:  33; 6HR MAX TEMP:  73;

OGALLALA       SUNNY     76  42  29 S8        30.00F
$$

NEZ005>010-023>029-035>040-094-191900-
NORTH CENTRAL NEBRASKA

CITY           SKY/WX    TMP DP  RH WIND       PRES   REMARKS
VALENTINE      SUNNY     79  38  22 SW21G30   29.92F
6HR MIN TEMP:  43; 6HR MAX TEMP:  79;

AINSWORTH      SUNNY     71  43  35 S17       29.96F
BROKEN BOW     SUNNY     71  47  42 S14       30.01F
6HR MIN TEMP:  33; 6HR MAX TEMP:  71;

O`NEILL        SUNNY     70  44  39 S15       29.99F
ORD            SUNNY     70  45  40 S8        30.01F
6HR MIN TEMP:  31; 6HR MAX TEMP:  70;

THEDFORD       SUNNY     75  41  29 S13       29.99F
$$

NEZ041-046>049-061>064-073>077-083>087-191900-
SOUTH CENTRAL NEBRASKA

CITY           SKY/WX    TMP DP  RH WIND       PRES   REMARKS
GRAND ISLAND   FAIR      74  50  42 VRB6      30.03F
6HR MIN TEMP:  37; 6HR MAX TEMP:  74;

AURORA         FAIR      74  48  39 S6        30.03F
HASTINGS       FAIR      73  50  44 SE7       30.04F
6HR MIN TEMP:  40; 6HR MAX TEMP:  73;

HEBRON         FAIR      77  51  41 S6        30.04F
HOLDREGE       FAIR      74  47  38 S6        30.03F
KEARNEY        FAIR      75  47  36 S10       30.03F
YORK           FAIR      73  50  43 S5        30.04F
$$

NEZ011>018-030>034-042>045-191900-
NORTHEAST NEBRASKA

CITY           SKY/WX    TMP DP  RH WIND       PRES   REMARKS
NORFOLK        FAIR      72  51  47 S14       30.01F
6HR MIN TEMP:  35; 6HR MAX TEMP:  72;

ALBION         FAIR      72  49  44 S14       30.03F
BLAIR          FAIR      72  52  49 SE10      30.05F
COLUMBUS       FAIR      75  52  44 S8        30.03F
FREMONT        FAIR      70  52  51 SE8       30.05F
TEKAMAH        FAIR      73  49  42 S10G16    30.05F
6HR MIN TEMP:  37; 6HR MAX TEMP:  73;

WAYNE          FAIR      70  49  46 S16       30.03F
$$

NEZ050>053-065>068-078-088>093-191900-
SOUTHEAST NEBRASKA

CITY           SKY/WX    TMP DP  RH WIND       PRES   REMARKS
LINCOLN        FAIR      74  54  49 S5        30.05F
6HR MIN TEMP:  42; 6HR MAX TEMP:  74;

OMAHA EPPLEY   FAIR      72  52  49 S12       30.05F
6HR MIN TEMP:  43; 6HR MAX TEMP:  72;

BEATRICE       FAIR      72  55  55 S7        30.05F
FALLS CITY     FAIR      73  53  49 S7        30.06F
6HR MIN TEMP:  43; 6HR MAX TEMP:  73;

NEBRASKA CITY  FAIR      71  55  58 S6        30.07F
PLATTSMOUTH    FAIR      72  55  55 SE9       30.06F
$$

NEZ044-045-051>053-067-191900-
OMAHA AREA

CITY           SKY/WX    TMP DP  RH WIND       PRES   REMARKS
OMAHA EPPLEY   FAIR      72  52  49 S12       30.05F
6HR MIN TEMP:  43; 6HR MAX TEMP:  72;

BLAIR          FAIR      72  52  49 SE10      30.05F
FREMONT        FAIR      70  52  51 SE8       30.05F
MILLARD        FAIR      72  55  54 SE6       30.05F
OFFUTT AFB     FAIR      72  53  51 SE12      30.05F
PLATTSMOUTH    FAIR      72  55  55 SE9       30.06F
WAHOO          FAIR      72  51  48 SE12      30.05F
$$




USA.gov is the U.S. government's official web portal to all federal, state and local government web resources and services.